Regional Weather Roundup
Issued by NWS

Home | Current Version | Previous Version | Graphics & Text | Print | Product List | Glossary Off
Versions: 1 2 3 4 5 6 7 8 9 10 11 12 13 14 15 16 17 18 19 20 21 22 23 24 25 26 27 28 29 30 31 32 33 34 35 36 37 38 39 40 41 42 43 44 45 46 47 48 49 50

000
ASUS43 KTOP 221459
RWRKS

WEATHER ROUNDUP FOR KANSAS
NATIONAL WEATHER SERVICE GOODLAND KS
1000 AM CDT WED MAR 22 2017

NOTE:  "FAIR" INDICATES FEW OR NO CLOUDS BELOW 12,000 FEET WITH NO
SIGNIFICANT WEATHER AND/OR OBSTRUCTIONS TO VISIBILITY.

KSZ001>006-013>018-027>032-041>047-221600-
NORTHWEST KANSAS

CITY           SKY/WX    TMP DP  RH WIND       PRES   REMARKS
GOODLAND       CLOUDY    40  31  70 S15       30.19S WCI  32
HAYS             N/A     43  25  49 E10       30.29R
HILL CITY      CLOUDY    41  26  55 E8        30.28F
RUSSELL        CLOUDY    43  25  49 E12       30.28R
$$

KSZ061>065-074>080-084>089-221600-
SOUTHWEST KANSAS

CITY           SKY/WX    TMP DP  RH WIND       PRES   REMARKS
DODGE CITY     CLOUDY    44  27  51 E9        30.24F
ELKHART          N/A     46  26  45 SE12        N/A
GARDEN CITY    CLOUDY    43  29  57 E10       30.22S
LIBERAL        CLOUDY    46  28  49 E10       30.23S
$$

KSZ066>073-081>083-090>101-221600-
SOUTHEAST KANSAS

CITY           SKY/WX    TMP DP  RH WIND       PRES   REMARKS
CHANUTE        CLOUDY    48  27  44 E17G23    30.27F
COFFEYVILLE    CLOUDY    50  30  46 E15G21    30.27S
HUTCHINSON     CLOUDY    47  24  40 E13       30.27S
MEDICINE LODGE   N/A     47  25  42 E13       30.24S
PARSONS        CLOUDY    51  26  37 E10G22    30.28F
WICHITA INTL   CLOUDY    49  26  41 E16       30.25F
WICHITA JABRA  CLOUDY    48  26  42 E10       30.25S
WICHITA MCCONL CLOUDY    48  24  39 E12       30.25R
WINFIELD       CLOUDY    49  28  44 E14       30.25S
$$

KSZ007>012-019>026-033>040-048>060-102>105-221600-
NORTHEAST KANSAS

CITY           SKY/WX    TMP DP  RH WIND       PRES   REMARKS
CONCORDIA      MOSUNNY   41  25  53 E15       30.33S
EMPORIA        SUNNY     47  25  42 E18G26    30.29R
LAWRENCE       CLOUDY    46  23  40 NE14      30.34S
MANHATTAN      SUNNY     44  25  47 E14       30.35S
OLATHE IND     CLOUDY    44  22  41 E15G23    30.33F
OLATHE EXE     CLOUDY    43  24  47 E13       30.33F
SALINA         PTSUNNY   46  25  43 E10       30.32R
TOPEKA BILLARD MOSUNNY   45  24  43 E16       30.34R
TOPEKA FORBES  CLOUDY    46  23  40 E16G22    30.33R
$$




USA.gov is the U.S. government's official web portal to all federal, state and local government web resources and services.